Location: Unspecified
(35.6961°N, 0.0000°E)
Time: 01:55:23
(UTC+00:00)

S-56A Canister/Altair - Pass Details

Date: 03 October 2020
Orbit: 632 x 2500 km, 38.9° (Epoch: 20 October)

Event Time Altitude Azimuth Distance (km) Brightness Sun altitude
Rises 18:46:06 0° 291° (WNW) 6,107 13.7 -14.2°
Reaches altitude 10° 18:50:24 10° 288° (WNW) 4,976 12.9 -15.0°
Maximum altitude 19:03:43 58° 215° (SW) 2,145 9.8 -17.7°
Enters shadow 19:12:02 15° 141° (SE) 3,286 10.3 -19.4°
